Wind_Speed
19 18 16 19 19 19 18 18 16 15 13 12 12 12 13 14 16 17 17 18 19 18 17 15 15 14 13 12 11 10 9 9 10 10 9 9 7 6 5 4 4 7 8
18 20 17 16 16 16 16 15 14 13 12 11 10 12 12 13 14 15 16 17 18 19 18 16 13 12 12 11 10 9 8 8 7 8 8 8 7 5 3 2 2 3 5
14 14 13 13 13 14 14 14 12 12 11 11 10 11 10 10 9 10 12 13 15 15 15 15 14 11 10 10 9 8 7 6 6 6 6 6 6 5 5 4 3 2 2
10 10 10 10 11 11 11 12 12 12 11 10 8 8 7 5 6 7 8 9 11 12 13 14 13 11 9 8 8 7 6 5 5 5 5 5 5 6 6 5 5 3 2
6 6 5 6 8 8 8 9 9 10 10 8 6 4 3 4 5 5 6 8 10 11 12 12 12 11 9 7 5 5 4 4 4 4 4 4 5 6 6 7 6 5 4
5 2 0 2 4 4 4 5 6 6 6 6 5 4 3 4 4 5 6 7 10 12 12 11 11 10 9 7 4 2 2 3 3 3 3 5 5 5 5 6 7 6 6
3 2 3 3 2 1 2 2 1 1 1 2 3 4 4 3 3 4 5 7 9 12 14 14 13 13 11 9 5 3 2 3 4 4 4 4 5 5 5 7 7 6 4
5 5 6 5 5 6 6 6 6 6 5 2 1 2 1 2 3 4 7 11 11 11 12 13 13 14 14 12 9 5 4 5 6 6 5 3 4 4 5 6 8 8 7
8 8 9 9 10 12 12 12 13 11 9 6 3 2 3 5 6 6 9 10 11 10 10 11 13 14 16 16 13 9 7 7 8 8 8 7 6 6 6 7 9 10 9
10 10 11 12 13 15 15 15 16 14 12 10 8 7 7 7 7 7 6 7 8 10 11 12 13 15 18 18 15 12 9 9 10 11 10 9 9 8 8 10 11 12 11
11 12 14 14 14 16 16 17 17 15 14 14 14 13 13 10 9 9 6 7 8 10 12 13 15 17 19 20 17 14 12 11 12 13 12 10 11 11 11 12 13 14 12
12 13 15 16 17 17 18 18 18 17 17 18 18 19 19 18 15 11 9 9 10 10 11 12 14 15 17 20 20 15 14 13 14 15 15 13 13 15 15 14 15 15 15
14 16 17 19 21 21 21 22 22 24 24 24 24 25 24 22 18 14 13 11 11 10 11 13 13 13 15 18 20 16 14 14 14 16 16 15 15 16 17 18 18 17 16
16 17 19 21 23 26 27 26 27 28 28 26 27 28 25 21 19 18 16 14 12 11 12 15 15 17 19 19 20 18 16 16 16 17 18 18 17 19 19 19 20 19 18
16 19 22 24 24 25 26 26 27 26 24 23 22 21 20 19 18 18 19 16 14 13 14 16 16 19 22 22 22 19 18 18 17 18 20 21 20 20 18 20 21 21 20
21 21 22 24 25 28 32 34 34 33 32 28 26 23 20 20 20 21 21 19 17 16 17 17 18 19 21 23 23 22 22 21 18 19 22 24 23 22 20 21 22 23 22
27 27 28 29 29 31 34 37 38 39 40 38 34 31 28 26 23 22 21 20 19 19 19 19 20 21 21 23 25 24 25 25 22 21 22 24 25 24 23 23 24 23 24
32 35 35 35 35 37 38 38 41 42 44 45 42 38 35 32 26 22 22 21 20 21 21 23 23 24 25 26 28 28 27 27 26 23 24 26 26 25 24 24 24 23 24
32 36 38 40 40 39 40 41 43 46 46 48 48 43 40 35 29 25 23 23 22 24 26 27 27 27 28 30 31 31 30 30 29 26 25 26 27 28 27 25 25 25 24
38 41 41 42 44 46 49 49 50 51 50 51 51 44 41 38 33 27 24 26 27 28 29 30 31 32 32 32 33 33 33 32 31 29 29 27 28 29 29 29 28 28 28
40 43 46 43 43 48 53 52 51 51 53 56 56 48 45 44 38 29 26 29 30 30 31 34 36 37 38 38 37 35 33 33 32 32 31 30 30 29 30 32 30 32 33
44 44 44 41 40 43 47 48 48 50 53 57 60 61 56 48 45 35 30 30 31 32 32 35 38 39 39 40 39 37 33 32 32 33 33 32 33 33 34 35 33 34 36
38 38 38 40 42 42 41 41 41 43 46 50 53 51 47 48 49 38 33 32 31 31 31 34 37 39 37 37 38 38 34 30 32 31 33 33 35 36 36 35 34 34 35
42 38 39 44 45 48 46 39 40 37 44 44 50 53 53 46 38 32 32 31 31 32 32 33 34 35 35 35 36 37 37 33 32 31 33 35 35 37 39 37 34 32 33
49 50 51 53 50 48 51 45 41 42 46 44 46 39 36 26 20 21 27 29 31 31 31 33 35 36 36 35 35 36 36 34 33 33 32 34 36 38 38 38 34 36 35
54 57 60 61 55 49 55 50 46 41 45 38 30 22 19 19 21 24 28 30 30 31 33 35 36 37 36 34 33 34 34 33 32 32 31 35 37 38 41 41 40 39 39
Wind_Direction
109 111 112 106 101 99 97 96 92 88 84 80 75 70 64 60 57 53 51 50 49 47 46 46 50 52 54 61 68 69 69 68 71 70 69 68 69 81 101 93 129 163 154
106 113 116 109 100 98 96 93 91 87 84 81 73 66 62 58 50 47 43 41 42 43 43 42 44 48 50 51 58 63 60 60 55 67 72 70 69 66 59 48 83 163 194
102 107 112 107 102 100 98 95 93 89 86 83 77 72 67 58 47 43 41 45 46 43 41 40 41 42 45 49 48 54 49 51 50 56 65 67 66 52 38 24 3 320 242
99 107 114 110 105 102 97 92 87 85 85 91 90 79 66 52 48 50 47 40 37 34 32 33 34 36 39 46 48 47 45 34 38 38 45 49 43 40 44 46 28 1 300
83 98 110 107 107 105 97 95 91 88 87 91 100 83 41 23 28 40 36 22 15 14 16 18 21 24 27 33 43 43 44 34 30 25 14 19 20 28 48 53 44 27 11
44 43 109 105 109 117 120 115 102 93 91 92 99 99 54 31 20 33 29 10 2 357 360 1 1 3 9 17 19 17 11 2 353 344 349 352 5 16 18 32 40 36 33
349 309 266 234 196 226 213 181 149 10 31 78 85 77 69 54 39 37 31 3 355 349 352 355 354 347 347 351 344 327 305 308 303 313 316 332 342 355 353 354 2 360 0
273 266 265 266 266 263 260 268 284 294 287 258 119 66 42 324 326 331 341 336 341 347 354 357 352 348 341 334 326 312 289 278 289 294 296 292 308 337 340 341 339 336 326
265 260 267 274 277 274 272 276 284 292 282 253 233 270 285 287 290 299 325 338 348 350 351 348 341 343 343 338 325 304 284 273 276 284 287 282 282 302 325 332 334 330 327
278 266 257 264 268 269 272 275 279 283 275 255 251 269 278 277 276 285 319 348 356 356 353 345 337 339 339 335 326 308 283 274 272 277 282 286 279 285 304 315 319 323 321
286 277 267 264 267 269 267 267 268 270 264 256 256 265 276 282 277 277 296 324 336 344 351 348 341 338 337 337 328 312 292 274 272 275 279 281 279 280 288 299 307 310 309
281 284 283 282 279 275 270 267 268 267 264 261 260 266 277 287 285 275 279 302 314 329 343 346 351 345 339 341 336 316 295 280 268 267 273 279 278 277 283 293 298 298 300
298 295 291 288 284 279 275 273 272 273 274 274 273 271 274 279 276 265 270 282 289 304 328 339 342 346 342 342 341 330 302 283 267 261 262 270 276 276 280 286 290 291 296
302 297 295 303 303 295 287 282 277 278 279 278 276 274 272 266 261 261 270 274 276 290 313 326 334 343 346 341 338 339 323 295 275 263 260 265 270 272 277 283 287 290 292
293 294 296 303 303 300 295 290 287 283 285 288 283 273 268 263 259 260 266 271 275 284 299 314 326 336 343 344 337 335 332 314 292 275 268 267 268 266 273 280 283 284 285
287 280 279 281 282 284 289 293 290 287 287 283 281 274 266 258 252 255 261 263 270 281 293 305 314 322 330 334 332 328 322 318 298 280 271 268 267 269 271 276 280 280 282
271 269 269 268 269 272 281 288 291 289 291 285 275 268 262 258 255 254 258 264 271 280 287 294 303 311 317 322 323 322 318 313 304 283 274 273 267 267 272 275 280 282 282
263 261 262 257 262 264 265 270 278 285 287 287 281 272 265 262 262 262 264 268 278 284 287 292 299 305 310 313 314 313 312 311 302 288 276 277 269 266 268 271 275 277 277
262 258 256 256 254 256 260 264 268 273 278 281 282 275 269 266 266 268 269 272 278 285 288 290 295 300 303 305 308 307 306 303 301 291 280 274 268 266 266 268 270 271 274
253 252 253 253 253 253 257 262 265 265 266 270 271 268 267 267 266 265 267 274 280 282 285 289 295 298 300 300 301 302 302 301 297 290 282 275 268 266 265 266 267 271 274
251 250 254 256 254 257 262 265 268 264 260 260 261 262 263 262 263 260 263 272 281 286 289 293 295 297 300 300 300 300 299 297 292 286 281 276 271 268 268 268 268 272 275
249 247 250 253 252 257 261 263 263 261 256 257 257 251 249 253 255 258 266 278 283 285 288 291 293 295 297 298 297 295 294 294 289 282 278 276 273 272 272 272 271 274 274
242 240 245 254 258 261 257 259 265 266 262 265 267 254 242 241 242 248 264 276 281 281 285 288 291 292 294 296 297 298 297 293 286 284 279 274 271 272 272 274 276 277 272
286 279 274 273 273 275 265 256 260 271 274 269 264 258 258 245 240 245 257 266 272 277 282 286 287 289 292 294 296 297 297 295 286 283 278 274 271 270 273 278 279 276 274
280 279 279 281 286 284 275 256 254 268 278 275 263 253 240 245 257 255 257 264 271 278 284 288 290 291 292 293 294 294 294 292 286 282 275 270 269 272 277 278 274 279 274
281 281 282 283 287 285 280 271 270 270 267 263 257 252 260 263 262 261 261 266 272 279 284 287 289 289 291 293 294 294 294 291 285 280 273 268 268 272 274 273 271 274 275
Height
5917 5918 5921 5921 5920 5920 5920 5919 5919 5918 5917 5917 5916 5916 5916 5915 5915 5914 5913 5913 5913 5913 5912 5912 5910 5910 5909 5908 5906 5905 5904 5904 5903 5902 5901 5900 5899 5898 5898 5897 5896 5895 5895
5920 5920 5922 5922 5922 5922 5921 5921 5920 5919 5918 5918 5917 5917 5917 5916 5916 5915 5914 5914 5914 5913 5912 5911 5911 5910 5909 5909 5908 5907 5906 5905 5904 5903 5902 5901 5900 5899 5898 5897 5897 5896 5895
5923 5922 5924 5924 5923 5923 5921 5920 5920 5919 5920 5919 5919 5918 5917 5917 5916 5915 5915 5914 5913 5912 5912 5911 5911 5910 5910 5909 5908 5907 5907 5905 5904 5904 5903 5901 5900 5899 5898 5897 5897 5896 5895
5925 5925 5925 5925 5924 5923 5922 5921 5920 5919 5920 5919 5919 5919 5918 5917 5916 5915 5914 5914 5913 5912 5911 5911 5910 5909 5909 5908 5908 5908 5907 5905 5904 5904 5903 5902 5900 5899 5897 5896 5896 5896 5896
5927 5927 5927 5927 5926 5925 5924 5922 5921 5919 5919 5919 5919 5919 5918 5918 5917 5915 5914 5913 5913 5912 5912 5911 5909 5909 5908 5908 5908 5907 5906 5905 5904 5903 5902 5901 5900 5899 5897 5896 5896 5895 5895
5927 5927 5928 5928 5927 5926 5924 5923 5922 5921 5920 5919 5919 5919 5918 5918 5917 5915 5914 5913 5912 5911 5911 5911 5910 5908 5907 5907 5907 5906 5906 5904 5904 5902 5901 5900 5900 5899 5898 5897 5895 5895 5895
5926 5926 5927 5927 5926 5925 5924 5922 5921 5921 5920 5919 5918 5918 5917 5916 5916 5915 5913 5912 5911 5911 5911 5910 5909 5908 5907 5906 5905 5905 5905 5904 5903 5902 5901 5900 5899 5898 5897 5897 5895 5894 5894
5926 5926 5926 5926 5925 5924 5923 5921 5920 5920 5919 5918 5917 5916 5916 5915 5914 5913 5913 5912 5911 5911 5910 5909 5907 5906 5905 5905 5904 5904 5903 5902 5901 5900 5900 5898 5897 5897 5895 5895 5895 5894 5893
5926 5926 5925 5925 5924 5923 5922 5920 5919 5918 5918 5917 5916 5915 5915 5914 5913 5912 5912 5912 5911 5910 5908 5907 5906 5904 5903 5903 5902 5902 5901 5901 5900 5898 5898 5897 5897 5896 5895 5894 5894 5893 5891
5925 5925 5924 5922 5921 5920 5920 5918 5918 5917 5916 5916 5916 5914 5914 5913 5912 5911 5910 5910 5910 5909 5907 5906 5904 5902 5900 5899 5898 5898 5898 5898 5898 5896 5895 5896 5896 5895 5894 5894 5892 5891 5890
5923 5922 5921 5919 5918 5918 5917 5916 5916 5915 5914 5914 5914 5913 5913 5912 5911 5911 5909 5908 5907 5907 5905 5903 5902 5901 5898 5896 5895 5894 5894 5894 5894 5893 5893 5893 5893 5893 5892 5892 5891 5889 5888
5920 5919 5919 5918 5918 5917 5916 5915 5914 5914 5913 5912 5912 5912 5912 5911 5910 5909 5908 5907 5906 5905 5903 5902 5900 5898 5897 5895 5892 5890 5890 5890 5890 5890 5890 5890 5890 5889 5889 5889 5888 5887 5885
5917 5916 5916 5916 5915 5914 5914 5913 5912 5912 5911 5911 5910 5909 5908 5907 5907 5906 5905 5904 5903 5902 5901 5900 5898 5896 5894 5893 5891 5888 5886 5886 5885 5885 5887 5887 5887 5886 5886 5886 5885 5884 5883
5914 5914 5913 5912 5912 5912 5911 5910 5910 5910 5909 5908 5907 5906 5905 5904 5903 5903 5902 5900 5898 5897 5896 5896 5895 5894 5891 5889 5888 5886 5884 5883 5882 5882 5883 5884 5884 5884 5884 5883 5882 5881 5880
5911 5911 5910 5908 5907 5907 5906 5906 5906 5907 5907 5906 5905 5903 5902 5901 5899 5898 5897 5897 5895 5894 5892 5892 5892 5890 5888 5886 5885 5882 5881 5880 5879 5878 5879 5880 5881 5880 5880 5880 5879 5879 5878
5905 5905 5905 5903 5902 5901 5900 5900 5901 5901 5901 5900 5900 5899 5898 5896 5894 5893 5893 5892 5891 5890 5889 5888 5887 5886 5884 5882 5881 5879 5877 5876 5875 5874 5874 5874 5876 5876 5876 5876 5875 5875 5873
5900 5899 5898 5897 5896 5895 5893 5892 5893 5893 5893 5893 5893 5893 5892 5891 5889 5888 5887 5887 5886 5885 5885 5884 5883 5881 5879 5879 5878 5875 5873 5872 5870 5869 5868 5868 5869 5870 5870 5870 5869 5869 5868
5893 5892 5890 5890 5889 5887 5886 5884 5884 5884 5884 5884 5883 5884 5884 5884 5884 5882 5882 5882 5882 5880 5879 5878 5878 5877 5874 5873 5872 5870 5869 5866 5865 5864 5863 5861 5861 5863 5863 5863 5863 5863 5863
5884 5884 5882 5882 5881 5878 5876 5875 5874 5875 5877 5876 5874 5875 5875 5876 5875 5876 5875 5875 5874 5873 5873 5872 5872 5871 5869 5867 5867 5865 5863 5861 5859 5858 5856 5856 5855 5856 5856 5857 5857 5857 5857
5872 5870 5869 5869 5870 5867 5866 5864 5862 5863 5866 5866 5864 5865 5865 5865 5866 5867 5867 5865 5865 5865 5864 5864 5864 5863 5861 5859 5859 5857 5856 5854 5853 5851 5850 5849 5850 5849 5850 5850 5851 5851 5851
5857 5857 5857 5858 5858 5857 5855 5854 5851 5850 5851 5851 5852 5854 5855 5855 5856 5858 5858 5857 5857 5856 5854 5853 5853 5853 5852 5850 5850 5850 5849 5847 5846 5844 5842 5841 5842 5843 5843 5843 5843 5843 5843
5844 5846 5847 5848 5848 5848 5846 5842 5839 5837 5837 5836 5836 5837 5840 5841 5843 5846 5849 5848 5848 5847 5846 5845 5844 5845 5845 5842 5840 5840 5841 5841 5837 5836 5835 5834 5833 5834 5835 5835 5836 5835 5835
5834 5836 5837 5839 5842 5842 5839 5834 5829 5828 5829 5825 5824 5827 5826 5825 5829 5833 5837 5837 5837 5838 5837 5836 5836 5837 5836 5833 5830 5829 5829 5832 5829 5828 5827 5826 5825 5825 5825 5826 5828 5827 5826
5823 5826 5827 5828 5830 5831 5826 5827 5827 5821 5816 5811 5812 5815 5817 5817 5819 5822 5825 5828 5830 5830 5829 5829 5828 5827 5826 5825 5822 5820 5818 5820 5819 5819 5817 5816 5816 5815 5816 5817 5818 5818 5817
5816 5817 5818 5818 5822 5821 5817 5813 5814 5806 5803 5801 5802 5805 5808 5809 5811 5815 5818 5820 5821 5821 5821 5820 5820 5818 5816 5815 5813 5811 5809 5808 5809 5809 5808 5807 5807 5807 5808 5809 5809 5809 5808
5808 5807 5807 5805 5808 5808 5808 5804 5800 5799 5792 5792 5792 5797 5799 5800 5803 5807 5809 5810 5811 5812 5812 5812 5810 5808 5806 5805 5803 5802 5802 5800 5799 5799 5799 5798 5799 5800 5799 5799 5799 5799 5798